This demonstration page uses our WeatherBlox Daily Observations layout. Learn more.

Left ArrowRight Arrow

Hourly Observations for June 27, 2021

Temp ( °F °C ) Dew Point ( °F °C ) Humidity (%) Winds ( mph kmh ) Pressure ( in mb ) Visibility ( mi km ) Precip ( " mm )
12:53 am 00:53 Clear 77 25 65 18.3 66 66 N N/A 30.03 1017 10 16 N/A
1:53 am 01:53 Clear 77 25 64 17.8 64 64 VRB 5 7 30.03 1017 10 16 N/A
2:53 am 02:53 Clear 77 25 64 17.8 64 64 VRB 5 7 30.03 1017 10 16 N/A
3:53 am 03:53 Clear 77 25 65 18.3 66 66 VRB 3 6 30.01 1016 10 16 N/A
4:53 am 04:53 Clear 76 24.4 65 18.3 69 69 VRB 5 7 30.01 1016 10 16 N/A
5:53 am 05:53 Clear with Light Rain 74 23.3 65 18.3 74 74 N N/A 30.02 1017 10 16 0.00 0.00
6:53 am 06:53 Sunny 74 23.3 66 18.9 76 76 VRB 3 6 30.04 1017 10 16 0.00 0.00
7:53 am 07:53 Sunny 76 24.4 67 19.4 74 74 VRB 6 9 30.06 1018 10 16 N/A
8:53 am 08:53 Sunny 78 25.6 68 20 71 71 VRB 6 9 30.07 1018 10 16 N/A
9:53 am 09:53 Sunny 81 27.2 69 20.6 67 67 SSW 9 15 30.07 1018 10 16 N/A
10:53 am 10:53 Sunny 84 28.9 70 21.1 63 63 WSW 10 17 30.08 1019 10 16 N/A
11:53 am 11:53 Mostly Cloudy 85 29.4 70 21.1 61 61 WSW 8 13 30.09 1019 10 16 N/A
12:53 pm 12:53 Partly Cloudy 87 30.6 70 21.1 57 57 SW 9 15 30.09 1019 10 16 N/A
1:53 pm 13:53 Partly Cloudy 88 31.1 72 22.2 59 59 VRB 7 11 30.08 1019 10 16 N/A
2:53 pm 14:53 Mostly Sunny 89 31.7 71 21.7 55 55 SSW 8 13 30.06 1018 10 16 N/A
3:53 pm 15:53 Mostly Cloudy 86 30 70 21.1 59 59 VRB 6 9 30.04 1017 10 16 N/A
4:53 pm 16:53 Mostly Cloudy with Light Rain 81 27.2 75 23.9 82 82 VRB 5 7 30.06 1018 8 13 0.00 0.00
5:53 pm 17:53 Mostly Cloudy 87 30.6 71 21.7 59 59 VRB 5 7 30.05 1018 10 16 0.00 0.00
6:53 pm 18:53 Mostly Sunny 86 30 72 22.2 63 63 VRB 5 7 30.04 1017 10 16 N/A
7:53 pm 19:53 Sunny 87 30.6 70 21.1 57 57 VRB 6 9 30.04 1017 10 16 N/A
8:53 pm 20:53 Sunny 81 27.2 71 21.7 72 72 N N/A 30.06 1018 10 16 N/A
9:53 pm 21:53 Hazy 79 26.1 70 21.1 74 74 N N/A 30.07 1018 6 10 N/A
10:53 pm 22:53 Clear 75 23.9 71 21.7 88 88 N N/A 30.10 1019 10 16 N/A
11:53 pm 23:53 Clear 76 24.4 70 21.1 82 82 N N/A 30.11 1020 10 16 N/A

Powered by AerisWeather